THORAD AGENA D DEB, 4211

Orbit data source: Space-Track

THORAD AGENA D DEB, 4211 is space debris in LEO originally from a launch on Tue, 30 Sep 1969 UTC launched from the Air Force Western Test Range (AFWTR). Debris objects in space refer to the collection of defunct objects orbiting the Earth. Examples of debris include non-operational satellites, rocket bodies, and fragments generated from explosions, collisions, or faulty payload assembly.

Loading next visibility...
Identifier
4211, 1969-082CA
Orbit
LEO
Country
Flag of USUS
Related business
Manufacturer
Unknown
Mission
Spacecraft
Bus & Motor
Unknown
Mass
Unknown
Launch date (UTC)
1969-09-30 (57 years ago)
Launch vehicle
Unknown
Launch site
Air Force Western Test Range (AFWTR)
Object type
Payload
Rocket body
Debris
Shape & HBR
Unknown shape, 0.3 m
Radar Cross Section
Medium (>0.1 m² and <1 m²)

Expand to show TLE details & history
Last TLE update: 17 hours ago

TLE from 17 hours ago
0 THORAD AGENA D DEB
1  4211U 69082CA  26093.59532901  .00000242  00000-0  16266-3 0  9999
2  4211  70.0721 201.2095 0030290  84.2111 276.2455 14.11427433902504
Epoch: 2026-04-03T14:17Z
TLE epoch observation values (Epoch: 2026-04-03T14:17:16.426Z)
Latitude
-0.00004°
Longitude
154.96384°
Altitude
854.507 km
Speed
7.427 km/s
True Right ascension
13h 24m 50s
True Declination
0° 00' 00"
Sunlit
Object was in full shadow at epoch
Visualization orbit readout
Latitude
Unknown
Longitude
Unknown
Altitude
Unknown
Speed
Unknown
Apparent Right ascension
Unknown
Apparent Declination
Unknown
Sunlit
N/A
Visualization observer readout
Local Sidereal Time
13:34:34
Azimuth
Unknown
Elevation
Unknown
Doppler factor
Unknown
Orbital elements
Apogee altitude
874.414 km
Perigee altitude
830.611 km
Semi-major axis
7,230.649 km
Eccentricity
0.00303
Inclination
70.0721°
RAAN
201.2095°
Arg. of periapsis
84.2111°
True anomaly
275.90032°
Mean anomaly
276.2455°
Eccentric anomaly
276.07293°
Mean motion
3.53002 °/min
Orbital period
101.98 mins
BSTAR
0.00016266

Documentation

Showing up to 5 results
|